Regional Weather Roundup
Issued by NWS Cleveland, OH

Home | Current Version | Previous Version | Graphics & Text | Print | Product List | Glossary On
Versions: 1 2 3 4 5 6 7 8 9 10 11 12 13 14 15 16 17 18 19 20 21 22 23 24 25 26 27 28 29 30 31 32 33 34 35 36 37 38 39 40 41 42 43 44 45 46 47 48 49 50
000
ASUS41 KCLE 262200
RWRCLE
OHIO REGIONAL WEATHER ROUNDUP
NATIONAL WEATHER SERVICE WILMINGTON, OH
500 PM EST WED NOV 26 2014

NOTE: "FAIR" INDICATES FEW OR NO CLOUDS BELOW 12,000 FEET WITH NO
SIGNIFICANT WEATHER AND/OR OBSTRUCTIONS TO VISIBILITY.

OHZ001>008-015>018-024>027-034-035-043-044-262300-
   NORTHWEST OHIO

CITY           SKY/WX    TMP DP  RH WIND       PRES   REMARKS
DEFIANCE       CLOUDY    31  24  75 N6        30.10S WCI  25
FINDLAY        CLOUDY    34  26  72 NW5       30.07R WCI  30
TOLEDO EXPRESS CLOUDY    31  24  75 N8        30.09S WCI  23
TOLEDO METCALF CLOUDY    33  25  72 N7        30.10S WCI  27
LIMA           CLOUDY    32  24  72 W5        30.06S WCI  27
$$

OHZ009>014-019>023-028>033-038-089-262300-
   NORTHEAST OHIO

CITY           SKY/WX    TMP DP  RH WIND       PRES   REMARKS
CLE-HOPKINS    CLOUDY    35  24  64 W3        30.06S
CLE-LAKEFRONT  CLOUDY    37  26  64 CALM      30.04S
CUY CO. ARPT   CLOUDY    37  28  70 NW7       30.04S
LORAIN-ELYRIA  PTCLDY    33  27  78 NW7       30.05S WCI  27
ASHTABULA      CLOUDY    36  27  69 CALM      30.04R
AKRON-CANTON   CLOUDY    36  25  64 N7        30.01R
WOOSTER        NOT AVBL
MANSFIELD      CLOUDY    33  26  75 N8        30.02S WCI  26
YOUNGSTOWN     CLOUDY    35  28  75 NE5       30.01R
$$

OHZ042-051>053-060>062-070>072-077>081-262300-
  SOUTHWEST OHIO

CITY           SKY/WX    TMP DP  RH WIND       PRES   REMARKS
CINC-COVINGTON MOCLDY    37  24  59 CALM      30.03F
CINC-LUNKEN    MOCLDY    36  26  67 NE5       30.06F
HAMILTON       MOCLDY    34  25  69 N6        30.06F WCI  29
DAYTON         NOT AVBL
WRIGHT-PAT AFB NOT AVBL
DAYTON GENERAL CLOUDY    34  26  72 CALM      30.03F
WILMINGTON     CLOUDY    34  26  72 NW3       30.04S
$$

OHZ036-037-039>041-045>050-054>059-063>069-073>076-082>088-262300-
  CENTRAL AND SOUTHEAST OHIO

CITY           SKY/WX    TMP DP  RH WIND       PRES   REMARKS
COLUMBUS       CLOUDY    37  26  64 NW7       30.04R
OSU AIRPORT    CLOUDY    35  26  69 NW6       30.04R
BOLTON FIELD   CLOUDY    36  27  69 NW7       30.05R
RICKENBACK AFB NOT AVBL
NEWARK         CLOUDY    38  27  64 NW6       30.02R
MARION         CLOUDY    34  26  72 N7        30.05R WCI  28
LANCASTER      CLOUDY    37  27  67 NW7       30.04R
ZANESVILLE     CLOUDY    38  28  67 CALM      30.01S
NEW PHILLY     CLOUDY    39  28  64 N5        30.03R
$$



USA.gov is the U.S. government's official web portal to all federal, state and local government web resources and services.